Regional Weather Roundup
Issued by NWS

Home | Current Version | Previous Version | Text Only | Print | Product List | Glossary On
Versions: 1 2 3 4 5 6 7 8 9 10 11 12 13 14 15 16 17 18 19 20 21 22 23 24 25 26 27 28 29 30 31 32 33 34 35 36 37 38 39 40 41 42 43 44 45 46 47 48 49 50
000
ASUS44 KJAN 121310
RWRMS

MISSISSIPPI HOURLY WEATHER ROUNDUP
NATIONAL WEATHER SERVICE JACKSON MS
700 AM CST TUE DEC 12 2017

NOTE: "FAIR: INDICATES FEW OR NO CLOUDS BELOW 12,000 FEET WITH NO
SIGNIFICANT WEATHER AND/OR OBSTRUCTIONS TO VISIBILITY.

MSZ001>002-007>008-010>013-018>021-025>028-034>036-121400-
NORTHWEST MISSISSIPPI

CITY           SKY/WX    TMP DP  RH WIND       PRES   REMARKS
BATESVILLE     FAIR      44  30  58 NW7       30.15R
CLARKSDALE     CLEAR     43  34  70 NW9       30.17R
CLEVELAND      FAIR      40  32  71 NW7       30.17R
GREENWOOD      CLEAR     45  33  63 N7        30.15R
GREENVILLE     CLEAR     45  30  55 NW12      30.17R
OLIVE BRANCH   CLOUDY    43  32  65 NW9       30.13
OXFORD         FAIR      41  30  65 NW8       30.14R
TUNICA           N/A    N/A N/A N/A NW15G22   30.18R
WINONA         FAIR      44  31  61 NW3       30.14R
$$

MSZ003>006-009-014>017-022>024-029>033-037>039-121400-
NORTHEAST MISSISSIPPI

CITY           SKY/WX    TMP DP  RH WIND       PRES   REMARKS
ABERDEEN       FAIR      43  36  75 NW9       30.10R
COLUMBUS AFB   CLEAR     43  32  64 NW9       30.08R
CORINTH        PTSUNNY   45  32  61 NW7       30.08R
GOLDN TRIANGLE CLEAR     43  29  57 NW6       30.10R
STARKVILLE     FAIR      43  30  61 NW6       30.11R
TUPELO         CLEAR     45  30  55 NW8       30.09R
$$

MSZ040-058-121400-
CENTRAL MISSISSIPPI

CITY           SKY/WX    TMP DP  RH WIND       PRES   REMARKS
JACKSON INTL   CLEAR     47  31  53 NW7       30.14R
JACKSON HAWKNS CLEAR     46  31  55 NW5       30.16R
MADISON        FAIR      43  32  65 NW8       30.15R
MERIDIAN KEY   PTCLDY    33  31  92 CALM      30.11R
MERIDIAN NAS   CLEAR     44  32  62 NW7       30.10R
RAYMOND          N/A     39  30  70 CALM      30.17R
VICKSBURG VKS  SUNNY     36  32  87 CALM      30.20R
$$

MSZ059>079-121400-
SOUTH MISSISSIPPI

CITY           SKY/WX    TMP DP  RH WIND       PRES   REMARKS
HATTIESBURG    CLEAR     48  36  63 NW8       30.12R
LAUREL         FAIR      41  32  70 NW6       30.13R
MCCOMB         CLEAR     43  35  73 N7        30.15R
NATCHEZ        CLEAR     46  30  53 N5        30.20R
PINE BELT      CLEAR     47  33  58 NW5       30.13R
$$

MSZ080>082-121400-
COASTAL MISSISSIPPI

CITY           SKY/WX    TMP DP  RH WIND       PRES   REMARKS
BAY ST LOUIS   CLEAR     45  41  87 NW10      30.13
BILOXI         CLEAR     48  41  77 NW12      30.09R
PASCAGOULA     CLEAR     46  41  82 VRB3      30.09R
GULFPORT       CLEAR     46  41  82 NW9       30.10R
$$

LAZ007>009-015>016-023>026-121400-
NORTHEAST LOUISIANA

CITY           SKY/WX    TMP DP  RH WIND       PRES   REMARKS
BASTROP        FAIR      42  28  57 NW5       30.21R
TALLULAH/VBURG CLEAR     45  31  58 NW6       30.19R
VIDALIA          N/A    N/A N/A N/A MISG      30.19R
$$



USA.gov is the U.S. government's official web portal to all federal, state and local government web resources and services.